Hourly Data Report for March 03, 2012

BAGOTVILLE A
QUEBEC

48°20'00.000" N
71°00'00.000" W
159.10 m
7060400
71727
YBG

Download Data

Hourly Data (March 2012)
Hourly Data Report for March 3, 2012
TIME
LST
Temp Definition
°C
Dew Point Definition
°C
Rel Hum Definition
%
Precip. Amount Definition
mm

Wind Dir Definition
10's deg

Wind Spd Definition
km/h
Visibility Definition
km
Stn Press Definition
kPa
Hmdx Definition


Wind Chill Definition


Weather Definition


00:00 -6.0 -8.1 85   10 24 24.1 99.11   -13 Cloudy
01:00 -5.6 -8.3 81   10 26 24.1 99.03   -13 Cloudy
02:00 -5.5 -7.8 84   10 24 24.1 98.89   -13 Cloudy
03:00 -5.3 -7.2 86   10 30 24.1 98.74   -13 Cloudy
04:00 -5.0 -7.5 83   9 30 24.1 98.54   -13 Cloudy
05:00 -4.8 -6.6 87   9 30 24.1 98.30   -13 Cloudy
06:00 -4.5 -6.6 85   10 22 6.4 98.34   -11 Snow
07:00 -5.0 -6.2 91   9 28 1.2 98.17   -13 Snow
08:00 -4.7 -5.9 91   9 35 4.0 97.98   -13 Snow,Blowing Snow
09:00 -4.0 -5.7 88   10 37 32.2 97.76   -12 Mostly Cloudy
10:00 -3.2 -5.4 85   9 44 24.1 97.57   -12 Mostly Cloudy
11:00 -2.6 -4.9 84   9 44 32.2 97.39   -11 Mostly Cloudy
12:00 -1.5 -3.6 86   9 33 40.2 97.19   -9 Mostly Cloudy
13:00 -0.5 -3.2 82   9 39 32.2 97.10   -8 Mostly Cloudy
14:00 -0.4 -2.0 89   9 30 24.1 96.96   -7 Mostly Cloudy
15:00 1.5 -1.0 83   9 15 24.1 96.88     Mainly Clear
16:00 1.7 -2.1 76   11 13 24.1 96.82     Mostly Cloudy
17:00 3.3 -1.9 69   20 20 32.2 96.77     Cloudy
18:00 2.9 -2.4 68   19 20 24.1 96.71     Cloudy
19:00 2.0 -1.5 78   20 15 24.1 96.66     Mostly Cloudy
20:00 2.5 -2.0 72   20 15 24.1 96.63     Mostly Cloudy
21:00 2.4 -2.8 68   22 15 24.1 96.61     Mostly Cloudy
22:00 2.1 -2.8 70   24 22 24.1 96.60     Mostly Cloudy
23:00 1.6 -2.5 74   25 24 24.1 96.62     Mostly Cloudy

Notes on Data Quality.

Legend

  • E = Estimated
  • M = Missing
  • NA = Not Available*
  • [empty] = Indicates an unobserved value
Date modified: